Regional Weather Roundup
Issued by NWS

Home | Current Version | Previous Version | Graphics & Text | Print | Product List | Glossary On
Versions: 1 2 3 4 5 6 7 8 9 10 11 12 13 14 15 16 17 18 19 20 21 22 23 24 25 26 27 28 29 30 31 32 33 34 35 36 37 38 39 40 41 42 43 44 45 46 47 48 49 50
502
ASUS45 KPSR 270110
RWRAZ

ARIZONA HOURLY REGIONAL WEATHER ROUNDUP
NATIONAL WEATHER SERVICE PHOENIX AZ
600 PM MST MON JUN 26 2017

NOTE: FAIR INDICATES FEW OR NO CLOUDS BELOW 12,000 FEET WITH NO
SIGNIFICANT WEATHER AND/OR OBSTRUCTIONS TO VISIBILITY.

AZZ001>003-036-270200-
NORTHWEST ARIZONA

CITY           SKY/WX    TMP DP  RH WIND       PRES   REMARKS
BULLHEAD CITY  SUNNY    115  25   4 SW8       29.67F HX 105
KINGMAN        SUNNY    100  29   8 SW15G24   29.95F
$$

AZZ004>008-015-016-018-270200-
NORTH CENTRAL ARIZONA

CITY           SKY/WX    TMP DP  RH WIND       PRES   REMARKS
GRAND CANYON   SUNNY     86  20   9 SW18G25   30.21F
PRESCOTT       SUNNY     93  21   7 W18G24    30.11F
FLAGSTAFF      MOSUNNY   84  21  10 W13G22    30.25F
PAYSON         PTSUNNY   91  36  14 W9        30.13F
PAGE           SUNNY     99  24   7 VRB7G16   29.92F
$$

AZZ009>014-017-270200-
NORTHEAST ARIZONA

CITY           SKY/WX    TMP DP  RH WIND       PRES   REMARKS
WINSLOW        MOSUNNY   96  25   8 W8        30.04F
SAINT JOHNS    MOSUNNY   93  30  10 W20G28    30.10S
WINDOW ROCK    MOSUNNY   86  30  13 CALM      30.19F
SHOW LOW       MOSUNNY   81  36  19 S14       30.22F
$$

AZZ540-542>544-546-548-270200-
GREATER PHOENIX AREA

CITY           SKY/WX    TMP DP  RH WIND       PRES   REMARKS
PHOENIX        MOSUNNY  111  42  10 W17G25    29.73F HX 105
BUCKEYE        SUNNY    109  36   8 W17       29.74F HX 102
GLENDALE       MOSUNNY  113  32   6 SW16G23   29.74F HX 105
LUKE AFB       SUNNY    112  35   7 W14       29.72F HX 105
DEER VALLEY    SUNNY    110  41   9 W15       29.75F HX 104
SCOTTSDALE     SUNNY    109  43  10 SW10      29.77F HX 104
MESA-FALCON    MOSUNNY  109  48  13 W12G17    29.77F HX 106
MESA-GATEWAY   MOSUNNY  108  43  11 W12       29.78F HX 102
CHANDLER       SUNNY    109  39   9 SW14      29.76F HX 103
$$

AZZ539-553-270200-
SOUTHWEST MARICOPA COUNTY AND PINAL COUNTY

CITY           SKY/WX    TMP DP  RH WIND       PRES   REMARKS
CASA GRANDE      N/A    N/A N/A N/A MISG        N/A
GILA BEND      SUNNY    111  39   9 W10       29.73F HX 105
$$

AZZ503-504-507>509-270200-
SOUTHEAST ARIZONA

CITY           SKY/WX    TMP DP  RH WIND       PRES   REMARKS
TUCSON         SUNNY    105  43  12 NW16      29.91S HX 100
DAVIS-MONTHAN  MOSUNNY  103  44  13 NW17G23   29.89F
NOGALES        LGT RAIN  90  52  27 S8        30.02R
SIERRA VISTA   MOSUNNY   88  40  18 W14       30.10F
DOUGLAS        MOSUNNY   96  41  15 NW15      30.01F
SAFFORD        PTSUNNY   99  39  12 VRB6      29.94F
$$

AZZ532-270200-
SOUTHWEST ARIZONA

CITY           SKY/WX    TMP DP  RH WIND       PRES   REMARKS
YUMA           SUNNY    111  43  10 W9        29.71F HX 105
$$

CAZ041-043-047-048-061-525>527-560>570-270200-
SOUTHERN CALIFORNIA

CITY           SKY/WX    TMP DP  RH WIND       PRES   REMARKS
DOWNTOWN L.A.  SUNNY     85  51  31 CALM      29.87F
L.A. AIRPORT   SUNNY     75  57  53 W16       29.88F
SAN DIEGO      SUNNY     81  60  48 NW7       29.90F
BURBANK        SUNNY     91  44  19 E10       29.89S
ONTARIO        SUNNY     95  31  10 W17G23    29.89F
RIVERSIDE      SUNNY     97  34  11 W15       29.89F
PALM SPRINGS   SUNNY    112  25   5 NW23G30   29.76F HX 103
EL CENTRO NAS  MOSUNNY  113  25   5 W22       29.72F HX 104
IMPERIAL       CLOUDY   111  57  17 NW7       29.70F HX 111
BLYTHE         PTSUNNY  114  31   6 W20       29.70F HX 106
NEEDLES        PTSUNNY  116  17   3 W21G29    29.70F HX 105
$$

NVZ020-UTZ003-270200-
SOUTHERN NEVADA-UTAH

CITY           SKY/WX    TMP DP  RH WIND       PRES   REMARKS
LAS VEGAS      SUNNY    106 -10   1 SW23G32   29.78F
SALT LAKE CITY PTSUNNY   98  29   8 CALM      29.85F
$$

NMZ009-TXZ055-270200-
NEW MEXICO-WEST TEXAS

CITY           SKY/WX    TMP DP  RH WIND       PRES   REMARKS
ALBUQUERQUE    TSTM      66  54  65 E25G46    30.18R
EL PASO        MOSUNNY   91  52  26 CALM      30.04F
$$


........................KEY........................
SKY/WX - SKY CONDITION/WEATHER
TMP    - TEMPERATURE IN FAHRENHEIT
DP     - DEW POINT IN FAHRENHEIT
RH     - RELATIVE HUMIDITY IN PERCENT
WIND   - DIRECTION AND SPEED IN MILES PER HOUR (MPH)
VRB    - VARIABLE WIND DIRECTION
PRES   - MEAN SEA LEVEL PRESSURE IN INCHES OF MERCURY
         F - FALLING PRESSURE   R - RISING PRESSURE
         S - STEADY PRESSURE
VSB    - VISIBILITY IN MILES
HX     - HEAT INDEX IN FAHRENHEIT
WCI    - WIND CHILL INDEX IN FAHRENHEIT
TC     - TEMPERATURE IN CELSIUS WHICH IS ALSO KNOWN AS
         TEMPERATURE IN CENTIGRADE
AFB    - AIR FORCE BASE
         LUKE AFB IS LUKE AIR FORCE BASE
         DAVIS-MONTHAN IS DAVIS-MONTHAN AIR FORCE BASE
NAS    - NAVAL AIR STATION
         EL CENTRO NAS IS EL CENTRO NAVAL AIR STATION
N/A    - NOT AVAILABLE





USA.gov is the U.S. government's official web portal to all federal, state and local government web resources and services.